{"data":{"norad_id":64758,"intl_designator":"2025-147D","name":"STARLINK-34593","alt_names":[],"object_type":"PAYLOAD","status":"ACTIVE","operator":null,"country":"US","launch_date":"2025-07-08","launch_site_code":"AFETR","launch_vehicle":null,"mission":null,"orbit_class":"UNKNOWN","rcs_meters":null,"size_class":null,"mass_kg":null,"dimensions":null,"purposes":["comms"],"wikipedia_slug":null,"has_3d_model":false,"image_url":null,"decayed_at":null,"tle_current":{"epoch":"2026-09-20T17:05:53.462976Z","epoch_age_seconds":109292,"freshness":"FRESH","line1":"1 64758U 25147D   26263.71242434  .00028161  00000+0  84089-3 0  9994","line2":"2 64758  53.1587  52.4191 0001610  95.0905 265.0282 15.34421665 68678","mean_motion":15.34421665,"eccentricity":0.000161,"inclination_deg":53.1587,"raan_deg":52.4191,"arg_perigee_deg":95.0905,"mean_anomaly_deg":265.0282,"bstar":0.00084089,"rev_number":6867,"period_min":93.846433014226,"perigee_km":461.53748310754,"apogee_km":463.7402129306,"semimajor_km":6840.7758480191,"source":"CELESTRAK","updated_at":"2026-09-21T09:00:35.436414Z"}}}